LiveATC.Net - Listen to live air traffic control over the Internet!

Find LiveATC Audio Streams


Airport/ARTCC Code

Frequency Search
(e.g., 124.400, 128.75)
Site-wide search
 


Browse LiveATC Feeds
LiveATC Coverage Map
Top 50 LiveATC Feeds
Bad Weather Areas

LiveATC FAQ
Offer a LiveATC Feed
Contact LiveATC.net
Press Inquiries

LiveATC on iPhone
LiveATC on Android

Windows Phone
Windows 8/10

LiveATC Mobile
(Mobile browser)

ATC Audio Archives
Interesting Recordings

LiveATC Forums

Home Page
About LiveATC.net
Make a Donation
LiveATC Store

Terms of Use
Privacy Policy

Canadian Air Freqs

AIRMETs/SIGMETs

FAA Airport Status
Nat'l Airspace Status
Arrival Demand Charts


Server Software By:
Icecast.org
Liquidsoap

Select an area of interest:
U.S. Feeds: Class B Airports | Class C Airports | Class D/Other Airports | ARTCC (Centers)
International Feeds: Canada | Europe | Oceania | Asia | South America | North/Central America | Africa
Misc Feeds: HF Feeds
Search by ICAO/IATA airport code:   (e.g., kbos, kjfk, lax, eham, etc.)


Currently Available Live Feeds: 1799
Status Updated: Wed Sep 20 2017 02:13:01 UTC


NOTICE

Unauthorized use prohibited. See LiveATC.net Terms of Service

Asia Airport Feeds

 

LTAF Tower/Approach (Archives)
Adana, Turkey

Feed Status: UP

Click on your favorite media player to listen:
Listen with WinAmp to LTAF Tower/Approach  Listen with iTunes to LTAF Tower/Approach  Click here to listen if using Real Player  Click here to listen if using Windows Media Player

Or simply listen in your browser:

Listen right in your browser(in browser, requires Flash)

LTAF 200150Z 17003KT 9999 SCT035 24/22 Q1009 NOSIG

LTAF Flight Activity (Flightaware)

Listeners: 0 out of 911 total

Adana Approach: 118.300
Adana Tower: 131.100
Adana Tower: 121.100

HF CWP 8903
Manila, Philippines

Feed Status: DOWN
Offline since: 2017-09-18 08:06:03 UTC

HF CWP: 8.903

HF CWP-1 11384
Manila, Philippines

Feed Status: DOWN
Offline since: 2017-08-22 08:46:04 UTC

HF CWP-1 Toyko/Manila/San Francisco: 11.384

HF SEA-2 5655
Manila, Philippines

Feed Status: DOWN
Offline since: 2017-08-22 08:46:04 UTC

HF SEA-2 Manila: 5.655

HF SEA-2 6556
Manila, Philippines

Feed Status: DOWN
Offline since: 2017-08-22 08:46:04 UTC

HF CEP2: 11.282
HF SEA-2 Singapore: 6.556

Receiver location: Nova Scotia, Canada

HF SEA-2 8942
Manila, Philippines

Feed Status: DOWN
Offline since: 2017-09-18 08:06:03 UTC

HF SEA-2: 8.942

HF SEA-3 11396
Manila, Philippines

Feed Status: DOWN
Offline since: 2017-08-22 08:46:04 UTC

HF SEA-3 Brisbane/Ujung Pandang: 11.396

OKBK Gnd/Twr/App/Radar
Kuwait City, Kuwait

Feed Status: DOWN
Offline since: 2017-09-17 22:34:03 UTC
OKBK 200200Z 00000KT CAVOK 28/09 Q1006 NOSIG

Kuwait Approach: 121.300
Kuwait Approach: 124.800
Kuwait Ground: 121.700
Kuwait Radar (Center): 125.300
Kuwait Tower: 118.300

OMSJ Tower
Dubai, United Arab Emirates

Feed Status: DOWN
Offline since: 2017-02-25 03:30:03 UTC
OMSJ 200200Z 35001KT CAVOK 25/19 Q1005

Sharjah Tower: 118.600

OPKC Gnd/Twr/Radar #1
Karachi, Pakistan

Feed Status: DOWN
Offline since: 2017-08-22 22:23:03 UTC
OPKC 200125Z 24005KT 4000 BR NSC 26/24 Q1003 NOSIG

Karachi Ground: 121.600
Karachi Radar: 125.500
Karachi Tower: 118.300

OPKC Gnd/Twr/Radar #2 (Archives)
Karachi, Pakistan

Feed Status: UP

Click on your favorite media player to listen:
Listen with WinAmp to OPKC Gnd/Twr/Radar #2  Listen with iTunes to OPKC Gnd/Twr/Radar #2  Click here to listen if using Real Player  Click here to listen if using Windows Media Player

Or simply listen in your browser:

Listen right in your browser(in browser, requires Flash)

OPKC 200125Z 24005KT 4000 BR NSC 26/24 Q1003 NOSIG


Listeners: 0 out of 911 total

Karachi East Sector: 126.500
Karachi Ground: 121.600
Karachi Radar: 125.500
Karachi South Sector (1830-0230 UTC): 133.025
Karachi Tower: 118.300
Karachi West Sector: 128.350

OPLA ATIS (Archives)
Lahore, Pakistan

Feed Status: UP

Click on your favorite media player to listen:
Listen with WinAmp to OPLA ATIS  Listen with iTunes to OPLA ATIS  Click here to listen if using Real Player  Click here to listen if using Windows Media Player

Or simply listen in your browser:

Listen right in your browser(in browser, requires Flash)

OPLA 200130Z 00000KT 4000 FU NSC 25/21 Q1005/A29.67


Listeners: 0 out of 911 total

Lahore ATIS: 126.300

OPLA/OPLH Gnd/Twr/App (Archives)
Lahore, Pakistan

Feed Status: UP

Click on your favorite media player to listen:
Listen with WinAmp to OPLA/OPLH Gnd/Twr/App  Listen with iTunes to OPLA/OPLH Gnd/Twr/App  Click here to listen if using Real Player  Click here to listen if using Windows Media Player

Or simply listen in your browser:

Listen right in your browser(in browser, requires Flash)

OPLA 200130Z 00000KT 4000 FU NSC 25/21 Q1005/A29.67


Listeners: 0 out of 911 total

Lahore Approach: 121.300
Lahore Approach: 125.300
Lahore Control: 127.500
Lahore Ground: 118.400
Lahore Tower: 118.100
Lahore Tower: 121.800
Walton (OPLH) Tower: 119.400

OPLA/OPLH Gnd/Twr/App (Archives)
Lahore, Pakistan

Feed Status: UP

Click on your favorite media player to listen:
Listen with WinAmp to OPLA/OPLH Gnd/Twr/App  Listen with iTunes to OPLA/OPLH Gnd/Twr/App  Click here to listen if using Real Player  Click here to listen if using Windows Media Player

Or simply listen in your browser:

Listen right in your browser(in browser, requires Flash)

OPLA 200130Z 00000KT 4000 FU NSC 25/21 Q1005/A29.67


Listeners: 0 out of 911 total

Lahore Approach: 121.300
Lahore Approach: 125.300
Lahore Control: 127.500
Lahore Ground: 118.400
Lahore Tower: 118.100
Lahore Tower: 121.800
Walton (OPLH) Tower: 119.400

OPPS Tower/App (Archives)
Peshawar, Pakistan

Feed Status: UP

Click on your favorite media player to listen:
Listen with WinAmp to OPPS Tower/App  Listen with iTunes to OPPS Tower/App  Click here to listen if using Real Player  Click here to listen if using Windows Media Player

Or simply listen in your browser:

Listen right in your browser(in browser, requires Flash)

OPPS 200130Z 31004KT 3600 HZ SKC 23/15 Q1005


Listeners: 0 out of 911 total

Peshawar Approach: 125.600
Peshawar Tower: 121.300
Peshawar Tower: 122.900

OPRN Approach (Archives)
Islamabad, Pakistan

Feed Status: UP

Click on your favorite media player to listen:
Listen with WinAmp to OPRN Approach  Listen with iTunes to OPRN Approach  Click here to listen if using Real Player  Click here to listen if using Windows Media Player

Or simply listen in your browser:

Listen right in your browser(in browser, requires Flash)

OPRN 200100Z 05004KT 6000 NSC 23/19 Q1007.2/29.74


Listeners: 0 out of 911 total

Islamabad Approach: 124.900

OPRN ATIS (Archives)
Islamabad, Pakistan

Feed Status: UP

Click on your favorite media player to listen:
Listen with WinAmp to OPRN ATIS  Listen with iTunes to OPRN ATIS  Click here to listen if using Real Player  Click here to listen if using Windows Media Player

Or simply listen in your browser:

Listen right in your browser(in browser, requires Flash)

OPRN 200100Z 05004KT 6000 NSC 23/19 Q1007.2/29.74


Listeners: 0 out of 911 total

Islamabad ATIS: 129.600

OPRN Tower (Archives)
Islamabad, Pakistan

Feed Status: UP

Click on your favorite media player to listen:
Listen with WinAmp to OPRN Tower  Listen with iTunes to OPRN Tower  Click here to listen if using Real Player  Click here to listen if using Windows Media Player

Or simply listen in your browser:

Listen right in your browser(in browser, requires Flash)

OPRN 200100Z 05004KT 6000 NSC 23/19 Q1007.2/29.74


Listeners: 0 out of 911 total

Islamabad Tower: 123.700

OPRN Tower/App (Archives)
Islamabad, Pakistan

Feed Status: UP

Click on your favorite media player to listen:
Listen with WinAmp to OPRN Tower/App  Listen with iTunes to OPRN Tower/App  Click here to listen if using Real Player  Click here to listen if using Windows Media Player

Or simply listen in your browser:

Listen right in your browser(in browser, requires Flash)

OPRN 200100Z 05004KT 6000 NSC 23/19 Q1007.2/29.74


Listeners: 0 out of 911 total

Islamabad Approach: 124.900
Islamabad Tower: 123.700

ORMM Gnd/Twr/App (Archives)
Basra, Iraq

Feed Status: UP

Click on your favorite media player to listen:
Listen with WinAmp to ORMM Gnd/Twr/App  Listen with iTunes to ORMM Gnd/Twr/App  Click here to listen if using Real Player  Click here to listen if using Windows Media Player

Or simply listen in your browser:

Listen right in your browser(in browser, requires Flash)

ORMM 200200Z 00000KT CAVOK 25/13 Q1005 NOSIG


Listeners: 0 out of 911 total

Basra Approach: 119.400
Basra Ground: 125.900
Basra Ops: 132.700
Basra Tower: 118.700

RCKH Ground
Kaohsiung, Taiwan

Feed Status: DOWN
Offline since: 2015-05-24 11:58:03 UTC
RCKH 200143Z 02006KT 330V060 5000 HZ FEW014 SCT050 BKN090 30/22 Q1010 NOSIG RMK A2985

Kaohsiung Ground: 121.900

RCKH Tower
Kaohsiung, Taiwan

Feed Status: DOWN
Offline since: 2015-06-03 18:36:03 UTC
RCKH 200143Z 02006KT 330V060 5000 HZ FEW014 SCT050 BKN090 30/22 Q1010 NOSIG RMK A2985

Kaohsiung Tower: 118.700

RCSS Tower
Taipei, Taiwan

Feed Status: DOWN
Offline since: 2017-08-31 14:55:02 UTC
RCSS 200130Z VRB04KT 9999 FEW025 33/23 Q1010 NOSIG RMK A2984

Songshan Tower: 118.100

RCTP Tower (Archives)
Taipei, Taiwan

Feed Status: UP

Click on your favorite media player to listen:
Listen with WinAmp to RCTP Tower  Listen with iTunes to RCTP Tower  Click here to listen if using Real Player  Click here to listen if using Windows Media Player

Or simply listen in your browser:

Listen right in your browser(in browser, requires Flash)

RCTP 200130Z 28006KT 220V310 9000 FEW020 32/24 Q1010 NOSIG RMK A2985

RCTP Flight Activity (Flightaware)

Listeners: 0 out of 911 total

Taipei Tower: 118.700

RJAA Approach (Archives)
Tokyo, Japan

Feed Status: UP

Click on your favorite media player to listen:
Listen with WinAmp to RJAA Approach  Listen with iTunes to RJAA Approach  Click here to listen if using Real Player  Click here to listen if using Windows Media Player

Or simply listen in your browser:

Listen right in your browser(in browser, requires Flash)

RJAA 200130Z 14004KT 110V180 9999 FEW020 BKN180 BKN/// 25/21 Q1008 NOSIG

RJAA Flight Activity (Flightaware)

Listeners: 1 out of 911 total

Tokyo Approach: 124.400

RJAA Clearance Delivery #1 (Archives)
Tokyo, Japan

Feed Status: UP

Click on your favorite media player to listen:
Listen with WinAmp to RJAA Clearance Delivery #1  Listen with iTunes to RJAA Clearance Delivery #1  Click here to listen if using Real Player  Click here to listen if using Windows Media Player

Or simply listen in your browser:

Listen right in your browser(in browser, requires Flash)

RJAA 200130Z 14004KT 110V180 9999 FEW020 BKN180 BKN/// 25/21 Q1008 NOSIG

RJAA Flight Activity (Flightaware)

Listeners: 0 out of 911 total

Narita Clearance Delivery: 121.650

RJAA Clearance Delivery #2 (Archives)
Tokyo, Japan

Feed Status: UP

Click on your favorite media player to listen:
Listen with WinAmp to RJAA Clearance Delivery #2  Listen with iTunes to RJAA Clearance Delivery #2  Click here to listen if using Real Player  Click here to listen if using Windows Media Player

Or simply listen in your browser:

Listen right in your browser(in browser, requires Flash)

RJAA 200130Z 14004KT 110V180 9999 FEW020 BKN180 BKN/// 25/21 Q1008 NOSIG

RJAA Flight Activity (Flightaware)

Listeners: 2 out of 911 total

Narita Clearance Delivery: 121.900

RJAA Departure #1 (Archives)
Tokyo, Japan

Feed Status: UP

Click on your favorite media player to listen:
Listen with WinAmp to RJAA Departure #1  Listen with iTunes to RJAA Departure #1  Click here to listen if using Real Player  Click here to listen if using Windows Media Player

Or simply listen in your browser:

Listen right in your browser(in browser, requires Flash)

RJAA 200130Z 14004KT 110V180 9999 FEW020 BKN180 BKN/// 25/21 Q1008 NOSIG

RJAA Flight Activity (Flightaware)

Listeners: 2 out of 911 total

Tokyo Departure: 124.200

RJAA Departure #2 (Archives)
Tokyo, Japan

Feed Status: UP

Click on your favorite media player to listen:
Listen with WinAmp to RJAA Departure #2  Listen with iTunes to RJAA Departure #2  Click here to listen if using Real Player  Click here to listen if using Windows Media Player

Or simply listen in your browser:

Listen right in your browser(in browser, requires Flash)

RJAA 200130Z 14004KT 110V180 9999 FEW020 BKN180 BKN/// 25/21 Q1008 NOSIG

RJAA Flight Activity (Flightaware)

Listeners: 0 out of 911 total

Tokyo Departure: 119.600

RJAA Emergency/Guard (Archives)
Tokyo, Japan

Feed Status: UP

Click on your favorite media player to listen:
Listen with WinAmp to RJAA Emergency/Guard  Listen with iTunes to RJAA Emergency/Guard  Click here to listen if using Real Player  Click here to listen if using Windows Media Player

Or simply listen in your browser:

Listen right in your browser(in browser, requires Flash)

RJAA 200130Z 14004KT 110V180 9999 FEW020 BKN180 BKN/// 25/21 Q1008 NOSIG

RJAA Flight Activity (Flightaware)

Listeners: 0 out of 911 total

Emergency/Guard: 121.500

RJAA Ground #1 (Archives)
Tokyo, Japan

Feed Status: UP

Click on your favorite media player to listen:
Listen with WinAmp to RJAA Ground #1  Listen with iTunes to RJAA Ground #1  Click here to listen if using Real Player  Click here to listen if using Windows Media Player

Or simply listen in your browser:

Listen right in your browser(in browser, requires Flash)

RJAA 200130Z 14004KT 110V180 9999 FEW020 BKN180 BKN/// 25/21 Q1008 NOSIG

RJAA Flight Activity (Flightaware)

Listeners: 4 out of 911 total

Narita Ground: 121.850

RJAA Ground #2 (Archives)
Tokyo, Japan

Feed Status: UP

Click on your favorite media player to listen:
Listen with WinAmp to RJAA Ground #2  Listen with iTunes to RJAA Ground #2  Click here to listen if using Real Player  Click here to listen if using Windows Media Player

Or simply listen in your browser:

Listen right in your browser(in browser, requires Flash)

RJAA 200130Z 14004KT 110V180 9999 FEW020 BKN180 BKN/// 25/21 Q1008 NOSIG

RJAA Flight Activity (Flightaware)

Listeners: 3 out of 911 total

Narita Ground: 121.950

RJAA Radar (Archives)
Tokyo, Japan

Feed Status: UP

Click on your favorite media player to listen:
Listen with WinAmp to RJAA Radar  Listen with iTunes to RJAA Radar  Click here to listen if using Real Player  Click here to listen if using Windows Media Player

Or simply listen in your browser:

Listen right in your browser(in browser, requires Flash)

RJAA 200130Z 14004KT 110V180 9999 FEW020 BKN180 BKN/// 25/21 Q1008 NOSIG

RJAA Flight Activity (Flightaware)

Listeners: 0 out of 911 total

Tokyo Radar: 120.200

RJAA Ramp #1 (Archives)
Tokyo, Japan

Feed Status: UP

Click on your favorite media player to listen:
Listen with WinAmp to RJAA Ramp #1  Listen with iTunes to RJAA Ramp #1  Click here to listen if using Real Player  Click here to listen if using Windows Media Player

Or simply listen in your browser:

Listen right in your browser(in browser, requires Flash)

RJAA 200130Z 14004KT 110V180 9999 FEW020 BKN180 BKN/// 25/21 Q1008 NOSIG

RJAA Flight Activity (Flightaware)

Listeners: 2 out of 911 total

Narita Ramp: 121.600

RJAA Ramp #2 (Archives)
Tokyo, Japan

Feed Status: UP

Click on your favorite media player to listen:
Listen with WinAmp to RJAA Ramp #2  Listen with iTunes to RJAA Ramp #2  Click here to listen if using Real Player  Click here to listen if using Windows Media Player

Or simply listen in your browser:

Listen right in your browser(in browser, requires Flash)

RJAA 200130Z 14004KT 110V180 9999 FEW020 BKN180 BKN/// 25/21 Q1008 NOSIG

RJAA Flight Activity (Flightaware)

Listeners: 3 out of 911 total

Narita Ramp: 121.750

RJAA TCA (Archives)
Tokyo, Japan

Feed Status: UP

Click on your favorite media player to listen:
Listen with WinAmp to RJAA TCA  Listen with iTunes to RJAA TCA  Click here to listen if using Real Player  Click here to listen if using Windows Media Player

Or simply listen in your browser:

Listen right in your browser(in browser, requires Flash)

RJAA 200130Z 14004KT 110V180 9999 FEW020 BKN180 BKN/// 25/21 Q1008 NOSIG

RJAA Flight Activity (Flightaware)

Listeners: 0 out of 911 total

Tokyo TCA (Terminal Control Area): 119.450

RJAA Tokyo Control (Archives)
Tokyo, Japan

Feed Status: UP

Click on your favorite media player to listen:
Listen with WinAmp to RJAA Tokyo Control  Listen with iTunes to RJAA Tokyo Control  Click here to listen if using Real Player  Click here to listen if using Windows Media Player

Or simply listen in your browser:

Listen right in your browser(in browser, requires Flash)

RJAA 200130Z 14004KT 110V180 9999 FEW020 BKN180 BKN/// 25/21 Q1008 NOSIG

RJAA Flight Activity (Flightaware)

Listeners: 0 out of 911 total

Tokyo Control: 125.900

RJAA Tower #1 (Archives)
Tokyo, Japan

Feed Status: UP

Click on your favorite media player to listen:
Listen with WinAmp to RJAA Tower #1  Listen with iTunes to RJAA Tower #1  Click here to listen if using Real Player  Click here to listen if using Windows Media Player

Or simply listen in your browser:

Listen right in your browser(in browser, requires Flash)

RJAA 200130Z 14004KT 110V180 9999 FEW020 BKN180 BKN/// 25/21 Q1008 NOSIG

RJAA Flight Activity (Flightaware)

Listeners: 8 out of 911 total

Narita Tower (Rwy 16R/34L): 118.200

RJAA Tower #2 (Archives)
Tokyo, Japan

Feed Status: UP

Click on your favorite media player to listen:
Listen with WinAmp to RJAA Tower #2  Listen with iTunes to RJAA Tower #2  Click here to listen if using Real Player  Click here to listen if using Windows Media Player

Or simply listen in your browser:

Listen right in your browser(in browser, requires Flash)

RJAA 200130Z 14004KT 110V180 9999 FEW020 BKN180 BKN/// 25/21 Q1008 NOSIG

RJAA Flight Activity (Flightaware)

Listeners: 10 out of 911 total

Narita Tower (Rwy 16L/34R): 118.350

RJOM Tower/App
Matsuyama, Japan

Feed Status: DOWN
Offline since: 2017-08-01 01:16:07 UTC
RJOM 200100Z 15011KT 9000 -RA FEW025 SCT080 BKN100 23/18 Q1011

Iwakuni Approach/Departure: 128.000
Iwakuni Approach/Departure: 343.400
Matsuyama Tower: 118.350

RJSF RDO (Archives)
Sukagawa, Japan

Feed Status: UP

Click on your favorite media player to listen:
Listen with WinAmp to RJSF RDO  Listen with iTunes to RJSF RDO  Click here to listen if using Real Player  Click here to listen if using Windows Media Player

Or simply listen in your browser:

Listen right in your browser(in browser, requires Flash)

RJSF 200100Z 20004KT 140V250 9999 FEW030 SCT040 BKN/// 22/17 Q1010

RJSF Flight Activity (Flightaware)

Listeners: 1 out of 911 total

Fukushima Radio: 118.050

RJTT App/Dep (Archives)
Tokyo, Japan

Feed Status: UP

Click on your favorite media player to listen:
Listen with WinAmp to RJTT App/Dep  Listen with iTunes to RJTT App/Dep  Click here to listen if using Real Player  Click here to listen if using Windows Media Player

Or simply listen in your browser:

Listen right in your browser(in browser, requires Flash)

RJTT 200130Z VRB01KT 9999 FEW020 BKN160 BKN/// 23/20 Q1009 NOSIG

RJTT Flight Activity (Flightaware)

Listeners: 12 out of 911 total

Tokyo Approach: 119.100
Tokyo Approach: 119.400
Tokyo Departure: 120.800
Tokyo Departure: 126.000

RJTT Approach (Archives)
Tokyo, Japan

Feed Status: UP

Click on your favorite media player to listen:
Listen with WinAmp to RJTT Approach  Listen with iTunes to RJTT Approach  Click here to listen if using Real Player  Click here to listen if using Windows Media Player

Or simply listen in your browser:

Listen right in your browser(in browser, requires Flash)

RJTT 200130Z VRB01KT 9999 FEW020 BKN160 BKN/// 23/20 Q1009 NOSIG

RJTT Flight Activity (Flightaware)

Listeners: 2 out of 911 total

Tokyo Approach: 119.100
Tokyo Approach: 119.400

RJTT ATIS (Archives)
Tokyo, Japan

Feed Status: UP

Click on your favorite media player to listen:
Listen with WinAmp to RJTT ATIS  Listen with iTunes to RJTT ATIS  Click here to listen if using Real Player  Click here to listen if using Windows Media Player

Or simply listen in your browser:

Listen right in your browser(in browser, requires Flash)

RJTT 200130Z VRB01KT 9999 FEW020 BKN160 BKN/// 23/20 Q1009 NOSIG

RJTT Flight Activity (Flightaware)

Listeners: 0 out of 911 total

Tokyo ATIS: 128.800

RJTT Company Channels (Archives)
Tokyo, Japan

Feed Status: UP

Click on your favorite media player to listen:
Listen with WinAmp to RJTT Company Channels  Listen with iTunes to RJTT Company Channels  Click here to listen if using Real Player  Click here to listen if using Windows Media Player

Or simply listen in your browser:

Listen right in your browser(in browser, requires Flash)

RJTT 200130Z VRB01KT 9999 FEW020 BKN160 BKN/// 23/20 Q1009 NOSIG

RJTT Flight Activity (Flightaware)

Listeners: 10 out of 911 total

Company TBD: 128.500
Company TBD: 131.850
Company TBD: 129.725
Company TBD: 129.700
Company TBD: 131.900
Company TBD: 129.850
Company TBD: 128.975
Company TBD: 123.675
Company TBD: 132.075

RJTT Departure (Archives)
Tokyo, Japan

Feed Status: UP

Click on your favorite media player to listen:
Listen with WinAmp to RJTT Departure  Listen with iTunes to RJTT Departure  Click here to listen if using Real Player  Click here to listen if using Windows Media Player

Or simply listen in your browser:

Listen right in your browser(in browser, requires Flash)

RJTT 200130Z VRB01KT 9999 FEW020 BKN160 BKN/// 23/20 Q1009 NOSIG

RJTT Flight Activity (Flightaware)

Listeners: 2 out of 911 total

Tokyo Departure: 120.800
Tokyo Departure: 126.000

RJTT Tokyo Control (Archives)
Tokyo, Japan

Feed Status: UP

Click on your favorite media player to listen:
Listen with WinAmp to RJTT Tokyo Control  Listen with iTunes to RJTT Tokyo Control  Click here to listen if using Real Player  Click here to listen if using Windows Media Player

Or simply listen in your browser:

Listen right in your browser(in browser, requires Flash)

RJTT 200130Z VRB01KT 9999 FEW020 BKN160 BKN/// 23/20 Q1009 NOSIG

RJTT Flight Activity (Flightaware)

Listeners: 11 out of 911 total

Tokyo Control: 133.700
Tokyo Control: 125.900
Tokyo Control: 120.500

RJTT Twr/TCA (Archives)
Tokyo, Japan

Feed Status: UP

Click on your favorite media player to listen:
Listen with WinAmp to RJTT Twr/TCA  Listen with iTunes to RJTT Twr/TCA  Click here to listen if using Real Player  Click here to listen if using Windows Media Player

Or simply listen in your browser:

Listen right in your browser(in browser, requires Flash)

RJTT 200130Z VRB01KT 9999 FEW020 BKN160 BKN/// 23/20 Q1009 NOSIG

RJTT Flight Activity (Flightaware)

Listeners: 11 out of 911 total

Tokyo TCA: 124.750
Tokyo Tower: 124.350
Tokyo Tower: 118.725
Tokyo Tower: 118.575
Tokyo Tower: 118.100

RKSG Gnd/Twr/App (Archives)
Pyeongtaek, Korea, Republic of

Feed Status: UP

Click on your favorite media player to listen:
Listen with WinAmp to RKSG Gnd/Twr/App  Listen with iTunes to RKSG Gnd/Twr/App  Click here to listen if using Real Player  Click here to listen if using Windows Media Player

Or simply listen in your browser:

Listen right in your browser(in browser, requires Flash)

RKSG 200155Z 31008KT 7SM FEW050 FEW150 21/08 A2992 RMK AO2A SLP133 T02130076 $

RKSG Flight Activity (Flightaware)

Listeners: 1 out of 911 total

Desiderio Final: 255.800
Desiderio GCA: 226.800
Desiderio GCA: 127.000
Desiderio Ground (Camp Humphreys A-511 AAF): 119.500
Desiderio Ground UHF: 229.700
Desiderio Ops: 294.100
Desiderio Tower (Camp Humphreys A-511 AAF): 122.500
Desiderio Tower UHF: 257.800

RKRR Incheon Control (Archives)
Incheon, Korea, Republic of

Feed Status: UP

Click on your favorite media player to listen:
Listen with WinAmp to RKRR Incheon Control  Listen with iTunes to RKRR Incheon Control  Click here to listen if using Real Player  Click here to listen if using Windows Media Player

Or simply listen in your browser:

Listen right in your browser(in browser, requires Flash)

RKSI 200130Z 33011KT CAVOK 21/05 Q1013 NOSIG

RKSI Flight Activity (Flightaware)

Listeners: 4 out of 911 total

Incheon Control North Sector (Primary): 128.700
Incheon Control North Sector (Secondary): 132.800
Incheon Control Northwest Sector (Primary): 126.175
Incheon Control Northwest Sector (Secondary): 123.725

RKSO Gnd/Twr/App (Archives)
Pyeongtaek, Korea, Republic of

Feed Status: UP

Click on your favorite media player to listen:
Listen with WinAmp to RKSO Gnd/Twr/App  Listen with iTunes to RKSO Gnd/Twr/App  Click here to listen if using Real Player  Click here to listen if using Windows Media Player

Or simply listen in your browser:

Listen right in your browser(in browser, requires Flash)

RKSO 200055Z 31008KT 7SM FEW150 21/04 A2993 RMK AO2A SLPNO WND DATA ESTMD ALSTG ESTMD $

RKSO Flight Activity (Flightaware)

Listeners: 1 out of 911 total

25 FS Ops: 229.000
36FS Ops: 371.300
Osan Air Base Approach/Departure: 127.900
Osan Air Base Approach/Departure: 133.650
Osan Air Base Ground: 132.450
Osan Air Base Tower: 122.100
Osan App/Dep UHF: 306.600
Osan App/Dep UHF: 234.300
Osan App/Dep UHF (possibly inactive): 306.300
Osan App/Dep UHF (possibly inactive): 363.100
Osan Ground UHF: 253.700
Osan SAR: 282.800
Osan SAR: 381.000
Osan SOF: 299.800
Osan Tower UHF: 308.800
Stallion Ops: 276.200

RPLL Approach/Departure
Manila, Philippines

Feed Status: DOWN
Offline since: 2017-01-25 05:39:03 UTC
RPLL 200200Z VRB02KT 7000 SCT023 BKN100 OVC250 30/27 Q1009 NOSIG RMK A2980

Manila Approach/Departure: 121.100
Manila Approach/Departure: 119.700
Manila Approach/Departure: 127.700
Manila Approach/Departure: 125.700

RPLL Ground/Tower
Manila, Philippines

Feed Status: DOWN
Offline since: 2017-01-25 05:39:03 UTC
RPLL 200200Z VRB02KT 7000 SCT023 BKN100 OVC250 30/27 Q1009 NOSIG RMK A2980

Manila Ground: 121.800
Manila Ground: 121.900
Manila Ground: 121.700
Manila Tower: 118.100

RPLL Tower (Archives)
Manila, Philippines

Feed Status: UP

Click on your favorite media player to listen:
Listen with WinAmp to RPLL Tower  Listen with iTunes to RPLL Tower  Click here to listen if using Real Player  Click here to listen if using Windows Media Player

Or simply listen in your browser:

Listen right in your browser(in browser, requires Flash)

RPLL 200200Z VRB02KT 7000 SCT023 BKN100 OVC250 30/27 Q1009 NOSIG RMK A2980

RPLL Flight Activity (Flightaware)

Listeners: 4 out of 911 total

Manila Tower: 118.100

RPUN Tower (Archives)
Pili-Luzon Island, Philippines

Feed Status: UP

Click on your favorite media player to listen:
Listen with WinAmp to RPUN Tower  Listen with iTunes to RPUN Tower  Click here to listen if using Real Player  Click here to listen if using Windows Media Player

Or simply listen in your browser:

Listen right in your browser(in browser, requires Flash)

METAR NOT AVAILABLE

RPUN Flight Activity (Flightaware)

Listeners: 0 out of 911 total

Naga Tower: 122.100

HF CWP/SEA (Archives)
Pyeongtaek, Korea, Republic of

Feed Status: UP

Click on your favorite media player to listen:
Listen with WinAmp to HF CWP/SEA  Listen with iTunes to HF CWP/SEA  Click here to listen if using Real Player  Click here to listen if using Windows Media Player

Or simply listen in your browser:

Listen right in your browser(in browser, requires Flash)


Listeners: 2 out of 911 total

CWP 1 (Tokyo): 11.384
CWP 1/2 (Tokyo): 13.300
CWP-1/2 (San Francisco): 17.904
CWP-1/2 (Tokyo/Manila): 8.903
CWP-1/2 (Tokyo/San Francisco): 21.985
SEA-2 (Manila): 8.942

UAAA Approach (Archives)
Almaty, Kazakhstan

Feed Status: UP

Click on your favorite media player to listen:
Listen with WinAmp to UAAA Approach  Listen with iTunes to UAAA Approach  Click here to listen if using Real Player  Click here to listen if using Windows Media Player

Or simply listen in your browser:

Listen right in your browser(in browser, requires Flash)

UAAA 200130Z 26004MPS 9999 FEW200 12/04 Q1021 R05L/CLRD65 NOSIG

UAAA Flight Activity (Flightaware)

Listeners: 0 out of 911 total

Almaty Approach: 124.800

UAAA Tower (Archives)
Almaty, Kazakhstan

Feed Status: UP

Click on your favorite media player to listen:
Listen with WinAmp to UAAA Tower  Listen with iTunes to UAAA Tower  Click here to listen if using Real Player  Click here to listen if using Windows Media Player

Or simply listen in your browser:

Listen right in your browser(in browser, requires Flash)

UAAA 200130Z 26004MPS 9999 FEW200 12/04 Q1021 R05L/CLRD65 NOSIG

UAAA Flight Activity (Flightaware)

Listeners: 0 out of 911 total

Almaty Tower: 119.400

UAAA Tower/Approach (Archives)
Almaty, Kazakhstan

Feed Status: UP

Click on your favorite media player to listen:
Listen with WinAmp to UAAA Tower/Approach  Listen with iTunes to UAAA Tower/Approach  Click here to listen if using Real Player  Click here to listen if using Windows Media Player

Or simply listen in your browser:

Listen right in your browser(in browser, requires Flash)

UAAA 200130Z 26004MPS 9999 FEW200 12/04 Q1021 R05L/CLRD65 NOSIG

UAAA Flight Activity (Flightaware)

Listeners: 0 out of 911 total

Almaty Approach: 124.800
Almaty Tower: 119.400

UNNT Gnd/Twr/App/Radar/Misc (Archives)
Novosibirsk, Russia

Feed Status: UP

Click on your favorite media player to listen:
Listen with WinAmp to UNNT Gnd/Twr/App/Radar/Misc  Listen with iTunes to UNNT Gnd/Twr/App/Radar/Misc  Click here to listen if using Real Player  Click here to listen if using Windows Media Player

Or simply listen in your browser:

Listen right in your browser(in browser, requires Flash)

UNNT 200130Z 30004MPS 9999 BKN012 OVC020 07/05 Q1020 R25/120065 R34/150065 NOSIG RMK QFE755/1007

UNNT Flight Activity (Flightaware)

Listeners: 1 out of 911 total

ACC_Novosibirsk-Control [5th military channel]: 128.500
ACC_Novosibirsk-Control [Southeast]: 126.100
ACC_Novosibirsk-Control [West]: 127.000
GPA_Kristallik [Severniy airfield]: 123.425
GPA_Sernisiy [Chkalovskiy airfield]: 124.750
GPA_Tomsk Information 1: 134.500
MIL_3 [3rd military channel]: 130.750
MIL_Larek [Shilovo facility]: 123.750
MIL_Maneken [Chkalovskiy airfield]: 123.550
MIL_Novosibirsk-1 [1st military channel]: 124.000
MIL_Noyabr' 31: 124.900
MIL_Trimaran: 124.500
SP_Air-to-Air: 123.450
SP_Air-to-Air 2: 123.400
SP_Common backup frequency: 129.000
SP_Emergency: 121.500
SP_Emergency 2: 123.100
SP_Flyoff: 124.375
SURF_Boarding: 163.425
SURF_Duty chart: 163.800
SURF_O&D Service: 163.325
SURF_Search & Rescue: 164.000
SURF_Security: 163.750
SURF_Tower surf: 163.650
SURF_Vehicles: 163.850
UNNT_Backup frequency: 127.100
UNNT_Novosibirsk-Approach: 127.500
UNNT_Novosibirsk-Ground: 121.700
UNNT_Novosibirsk-Radar: 122.000
UNNT_Novosibirsk-Tower: 118.500
UNNT_Novosibirsk-Transit: 131.600
UNNT_S7 FOCC: 131.925

UNOO Gnd/Tower/App (Archives)
Omsk, Russia

Feed Status: UP

Click on your favorite media player to listen:
Listen with WinAmp to UNOO Gnd/Tower/App  Listen with iTunes to UNOO Gnd/Tower/App  Click here to listen if using Real Player  Click here to listen if using Windows Media Player

Or simply listen in your browser:

Listen right in your browser(in browser, requires Flash)

UNOO 200130Z 17004MPS 9999 -SHRA BKN033CB 08/04 Q1019 R25/290050 NOSIG RMK QFE756

UNOO Flight Activity (Flightaware)

Listeners: 0 out of 911 total

Aerodrom Kalachevo: 123.300
Aerodrom Marianovka: 123.000
Emergency/Guard: 121.500
Novosibirsk Control (Sector 7): 132.500
Novosibirsk Control (Sector 8): 132.900
Omsk Approach (FL060-FL265): 131.200
Omsk Apron: 118.800
Omsk Start/Radar: 119.000
Omsk Taxiing: 121.700
Omsk Transit: 131.700
UNOS/OMSK-Severny: 124.000

UNTT Gnd/Info/Radar/Control (Archives)
Tomsk, Russia

Feed Status: UP

Click on your favorite media player to listen:
Listen with WinAmp to UNTT Gnd/Info/Radar/Control  Listen with iTunes to UNTT Gnd/Info/Radar/Control  Click here to listen if using Real Player  Click here to listen if using Windows Media Player

Or simply listen in your browser:

Listen right in your browser(in browser, requires Flash)

UNTT Flight Activity (Flightaware)

Listeners: 0 out of 911 total

Common Backup Frequency: 129.000
Emergency/Guard: 121.500
Novosibirsk Control (Sector 2): 126.100
Novosibirsk Control (Sector 3): 129.300
Novosibirsk Control (Sector 5): 132.300
Tomsk Ground: 118.800
Tomsk Information 1: 134.500
Tomsk Krug (Radar): 127.300
Tomsk Transit: 131.875
Troynik (Golovino): 122.400

USCC Twr/App/Control (Archives)
Chelyabinsk, Russia

Feed Status: UP

Click on your favorite media player to listen:
Listen with WinAmp to USCC Twr/App/Control  Listen with iTunes to USCC Twr/App/Control  Click here to listen if using Real Player  Click here to listen if using Windows Media Player

Or simply listen in your browser:

Listen right in your browser(in browser, requires Flash)

USCC 200130Z 21007MPS 9999 FEW033CB 17/09 Q1014 R27/000060 TEMPO 22012MPS RMK QFE740

USCC Flight Activity (Flightaware)

Listeners: 0 out of 911 total

Airfield Services: 163.380
Airfield Services: 163.500
Airfield Services: 163.950
Airfield Services: 164.150
Chelyabinsk Approach: 124.700
Chelyabinsk Control (North): 125.400
Chelyabinsk Control (South): 125.500
Chelyabinsk Tower: 125.200
Chelyabinsk Transit: 131.600
Emergency/Guard: 121.500

USTR Gnd/Twr/App (Archives)
Tyumen, Russia

Feed Status: UP

Click on your favorite media player to listen:
Listen with WinAmp to USTR Gnd/Twr/App  Listen with iTunes to USTR Gnd/Twr/App  Click here to listen if using Real Player  Click here to listen if using Windows Media Player

Or simply listen in your browser:

Listen right in your browser(in browser, requires Flash)

USTR 200130Z 20004MPS 9999 TS FEW006 BKN040CB 08/07 Q1010 R21/290060 TEMPO 2100 -TSRA BR BKN004 BKN015CB RMK QBB200 QFE748/0998

USTR Flight Activity (Flightaware)

Listeners: 0 out of 911 total

Tyumen Approach: 126.100
Tyumen Control: 132.600
Tyumen Control: 133.600
Tyumen Info (Regional): 133.400
Tyumen Start: 118.200
Tyumen Transit: 131.800

UTDL Gnd/Twr/App/ACC
Khujand, Tajikistan

Feed Status: DOWN
Offline since: 2017-08-25 20:01:04 UTC
UTDL 200130Z 27001MPS 9999 FEW230 15/06 Q1014 88CLRD70 NOSIG RMK QFE723/0964

Dushanbe ACC: 133.100
Khujand Approach: 124.800
Khujand Ground: 121.900
Khujand Tower: 120.300

VHHH App/Dep/Radar
Hong Kong, Hong Kong

Feed Status: DOWN
Offline since: 2017-09-20 02:10:03 UTC
VHHH 200130Z 04007KT 9999 FEW022 31/24 Q1010 NOSIG

Hong Kong Approach: 119.100
Hong Kong Departure Control: 122.000
Hong Kong Departure Control: 123.800
Hong Kong Director: 119.500
Hong Kong Zone Control: 120.600


Note: Feed manually alternates between listed frequencies.

VHHH Approach 119.1 #1
Hong Kong, Hong Kong

Feed Status: DOWN
Offline since: 2017-09-20 01:44:03 UTC
VHHH 200130Z 04007KT 9999 FEW022 31/24 Q1010 NOSIG

Hong Kong Approach: 119.100

VHHH Approach 119.1 #2 (Archives)
Hong Kong, Hong Kong

Feed Status: UP

Click on your favorite media player to listen:
Listen with WinAmp to VHHH Approach 119.1 #2  Listen with iTunes to VHHH Approach 119.1 #2  Click here to listen if using Real Player  Click here to listen if using Windows Media Player

Or simply listen in your browser:

Listen right in your browser(in browser, requires Flash)

VHHH 200130Z 04007KT 9999 FEW022 31/24 Q1010 NOSIG

VHHH Flight Activity (Flightaware)

Listeners: 0 out of 911 total

Hong Kong Approach: 119.100

VHHH ATIS (Archives)
Hong Kong, Hong Kong

Feed Status: UP

Click on your favorite media player to listen:
Listen with WinAmp to VHHH ATIS  Listen with iTunes to VHHH ATIS  Click here to listen if using Real Player  Click here to listen if using Windows Media Player

Or simply listen in your browser:

Listen right in your browser(in browser, requires Flash)

VHHH 200130Z 04007KT 9999 FEW022 31/24 Q1010 NOSIG

VHHH Flight Activity (Flightaware)

Listeners: 1 out of 911 total

Hong Kong Arrival ATIS: 128.200

VHHH Clearance Delivery (Archives)
Hong Kong, Hong Kong

Feed Status: UP

Click on your favorite media player to listen:
Listen with WinAmp to VHHH Clearance Delivery  Listen with iTunes to VHHH Clearance Delivery  Click here to listen if using Real Player  Click here to listen if using Windows Media Player

Or simply listen in your browser:

Listen right in your browser(in browser, requires Flash)

VHHH 200130Z 04007KT 9999 FEW022 31/24 Q1010 NOSIG

VHHH Flight Activity (Flightaware)

Listeners: 3 out of 911 total

Hong Kong Clearance Delivery: 129.900

VHHH Departure 123.8
Hong Kong, Hong Kong

Feed Status: DOWN
Offline since: 2017-09-20 01:44:03 UTC
VHHH 200130Z 04007KT 9999 FEW022 31/24 Q1010 NOSIG

Hong Kong Departure: 123.800

VHHH Director (Archives)
Hong Kong, Hong Kong

Feed Status: UP

Click on your favorite media player to listen:
Listen with WinAmp to VHHH Director  Listen with iTunes to VHHH Director  Click here to listen if using Real Player  Click here to listen if using Windows Media Player

Or simply listen in your browser:

Listen right in your browser(in browser, requires Flash)

VHHH 200130Z 04007KT 9999 FEW022 31/24 Q1010 NOSIG

VHHH Flight Activity (Flightaware)

Listeners: 0 out of 911 total

Hong Kong Director: 119.500

VHHH Ground (Archives)
Hong Kong, Hong Kong

Feed Status: UP

Click on your favorite media player to listen:
Listen with WinAmp to VHHH Ground  Listen with iTunes to VHHH Ground  Click here to listen if using Real Player  Click here to listen if using Windows Media Player

Or simply listen in your browser:

Listen right in your browser(in browser, requires Flash)

VHHH 200130Z 04007KT 9999 FEW022 31/24 Q1010 NOSIG

VHHH Flight Activity (Flightaware)

Listeners: 0 out of 911 total

Hong Kong Ground (North): 121.600
Hong Kong Ground (South): 122.550

VHHH Ground (North) (Archives)
Hong Kong, Hong Kong

Feed Status: UP

Click on your favorite media player to listen:
Listen with WinAmp to VHHH Ground (North)  Listen with iTunes to VHHH Ground (North)  Click here to listen if using Real Player  Click here to listen if using Windows Media Player

Or simply listen in your browser:

Listen right in your browser(in browser, requires Flash)

VHHH 200130Z 04007KT 9999 FEW022 31/24 Q1010 NOSIG

VHHH Flight Activity (Flightaware)

Listeners: 0 out of 911 total

Hong Kong Ground (North): 121.600

VHHH Ground (South) (Archives)
Hong Kong, Hong Kong

Feed Status: UP

Click on your favorite media player to listen:
Listen with WinAmp to VHHH Ground (South)  Listen with iTunes to VHHH Ground (South)  Click here to listen if using Real Player  Click here to listen if using Windows Media Player

Or simply listen in your browser:

Listen right in your browser(in browser, requires Flash)

VHHH 200130Z 04007KT 9999 FEW022 31/24 Q1010 NOSIG

VHHH Flight Activity (Flightaware)

Listeners: 0 out of 911 total

Hong Kong Ground (South): 122.550

VHHH Tower (Archives)
Hong Kong, Hong Kong

Feed Status: UP

Click on your favorite media player to listen:
Listen with WinAmp to VHHH Tower  Listen with iTunes to VHHH Tower  Click here to listen if using Real Player  Click here to listen if using Windows Media Player

Or simply listen in your browser:

Listen right in your browser(in browser, requires Flash)

VHHH 200130Z 04007KT 9999 FEW022 31/24 Q1010 NOSIG

VHHH Flight Activity (Flightaware)

Listeners: 0 out of 911 total

Hong Kong Tower (North): 118.200
Hong Kong Tower (South): 118.400

VHHH Tower (North) (Archives)
Hong Kong, Hong Kong

Feed Status: UP

Click on your favorite media player to listen:
Listen with WinAmp to VHHH Tower (North)  Listen with iTunes to VHHH Tower (North)  Click here to listen if using Real Player  Click here to listen if using Windows Media Player

Or simply listen in your browser:

Listen right in your browser(in browser, requires Flash)

VHHH 200130Z 04007KT 9999 FEW022 31/24 Q1010 NOSIG

VHHH Flight Activity (Flightaware)

Listeners: 0 out of 911 total

Hong Kong Tower (North): 118.200

VHHH Tower (South) (Archives)
Hong Kong, Hong Kong

Feed Status: UP

Click on your favorite media player to listen:
Listen with WinAmp to VHHH Tower (South)  Listen with iTunes to VHHH Tower (South)  Click here to listen if using Real Player  Click here to listen if using Windows Media Player

Or simply listen in your browser:

Listen right in your browser(in browser, requires Flash)

VHHH 200130Z 04007KT 9999 FEW022 31/24 Q1010 NOSIG

VHHH Flight Activity (Flightaware)

Listeners: 0 out of 911 total

Hong Kong Tower (South): 118.400

VHHH Zone (Archives)
Hong Kong, Hong Kong

Feed Status: UP

Click on your favorite media player to listen:
Listen with WinAmp to VHHH Zone  Listen with iTunes to VHHH Zone  Click here to listen if using Real Player  Click here to listen if using Windows Media Player

Or simply listen in your browser:

Listen right in your browser(in browser, requires Flash)

VHHH 200130Z 04007KT 9999 FEW022 31/24 Q1010 NOSIG

VHHH Flight Activity (Flightaware)

Listeners: 0 out of 911 total

Hong Kong Zone: 120.600

VNKT Twr/App/Control (Archives)
Kathmandu, Nepal

Feed Status: UP

Click on your favorite media player to listen:
Listen with WinAmp to VNKT Twr/App/Control  Listen with iTunes to VNKT Twr/App/Control  Click here to listen if using Real Player  Click here to listen if using Windows Media Player

Or simply listen in your browser:

Listen right in your browser(in browser, requires Flash)

VNKT 200150Z 17003KT 6000 FEW008 SCT030 BKN100 22/21 Q1013 NOSIG

VNKT Flight Activity (Flightaware)

Listeners: 0 out of 911 total

Kathmandu Approach: 120.600
Kathmandu Control: 126.500
Kathmandu Tower: 118.100
Kathmandu Tower (backup): 118.500

NOTE: This feed will only be up for a few hours each day

VTBS App/Dep (Archives)
Bangkok, Thailand

Feed Status: UP

Click on your favorite media player to listen:
Listen with WinAmp to VTBS App/Dep  Listen with iTunes to VTBS App/Dep  Click here to listen if using Real Player  Click here to listen if using Windows Media Player

Or simply listen in your browser:

Listen right in your browser(in browser, requires Flash)

VTBS 200130Z 31005KT 260V340 9999 FEW020 29/23 Q1009 NOSIG

VTBS Flight Activity (Flightaware)

Listeners: 1 out of 911 total

Bangkok Approach: 122.350
Bangkok Approach: 124.350
Bangkok Approach: 125.200
Bangkok Approach: 119.400
Bangkok Approach: 125.800
Bangkok Approach/Departure: 119.100
Bangkok Approach/Departure: 121.700
Bangkok Arrival: 121.100

VTBS Gnd/Twr (Archives)
Bangkok, Thailand

Feed Status: UP

Click on your favorite media player to listen:
Listen with WinAmp to VTBS Gnd/Twr  Listen with iTunes to VTBS Gnd/Twr  Click here to listen if using Real Player  Click here to listen if using Windows Media Player

Or simply listen in your browser:

Listen right in your browser(in browser, requires Flash)

VTBS 200130Z 31005KT 260V340 9999 FEW020 29/23 Q1009 NOSIG

VTBS Flight Activity (Flightaware)

Listeners: 0 out of 911 total

Bangkok Ground: 121.650
Bangkok Ground: 121.750
Bangkok Ground: 121.950
Bangkok Tower: 119.000
Bangkok Tower: 118.200

VTSS Approach (Archives)
Songkhla, Thailand

Feed Status: UP

Click on your favorite media player to listen:
Listen with WinAmp to VTSS Approach  Listen with iTunes to VTSS Approach  Click here to listen if using Real Player  Click here to listen if using Windows Media Player

Or simply listen in your browser:

Listen right in your browser(in browser, requires Flash)

VTSS 200130Z 21004KT 9999 FEW020 BKN100 28/26 Q1010 NOSIG

VTSS Flight Activity (Flightaware)

Listeners: 0 out of 911 total

Hat Yai Approach: 126.700

WARR Gnd/Twr/Radar (Archives)
Surabaya, Indonesia

Feed Status: UP

Click on your favorite media player to listen:
Listen with WinAmp to WARR Gnd/Twr/Radar  Listen with iTunes to WARR Gnd/Twr/Radar  Click here to listen if using Real Player  Click here to listen if using Windows Media Player

Or simply listen in your browser:

Listen right in your browser(in browser, requires Flash)

WARR 200000Z 23003KT 200V280 5000 HZ FEW020 25/20 Q1013 NOSIG


Listeners: 0 out of 911 total

Juanda Ground: 119.150
Juanda Tower: 118.300
Surabaya Director: 123.200
Surabaya East Control: 124.000
Surabaya West Control: 125.100

WBKK Gnd/Twr/App (Archives)
Kota Kinabalu, Malaysia

Feed Status: UP

Click on your favorite media player to listen:
Listen with WinAmp to WBKK Gnd/Twr/App  Listen with iTunes to WBKK Gnd/Twr/App  Click here to listen if using Real Player  Click here to listen if using Windows Media Player

Or simply listen in your browser:

Listen right in your browser(in browser, requires Flash)

WBKK 200130Z 33005KT 280V060 9999 SCT014 SCT040 BKN270 28/24 Q1012 NOSIG


Listeners: 0 out of 911 total

Kinabalu Director: 119.100
Kinabalu Ground: 121.600
Kinabalu Radar: 126.100
Kinabalu Radar: 132.450
Kinabalu Tower: 118.300

WMKB Radar (Archives)
Penang, Malaysia

Feed Status: UP

Click on your favorite media player to listen:
Listen with WinAmp to WMKB Radar  Listen with iTunes to WMKB Radar  Click here to listen if using Real Player  Click here to listen if using Windows Media Player

Or simply listen in your browser:

Listen right in your browser(in browser, requires Flash)

WMKB 200100Z VRB02KT 8000 FEW018 SCT140 BKN270 28/27 Q1011 NOSIG


Listeners: 6 out of 911 total

Butterworth Radar: 125.800

Lumpur Control/Radar (North) (Archives)
Sepang, Malaysia

Feed Status: UP

Click on your favorite media player to listen:
Listen with WinAmp to Lumpur Control/Radar (North)  Listen with iTunes to Lumpur Control/Radar (North)  Click here to listen if using Real Player  Click here to listen if using Windows Media Player

Or simply listen in your browser:

Listen right in your browser(in browser, requires Flash)

WMKK 200130Z VRB03KT 8000 -RA FEW010 FEW017CB SCT028 BKN140 26/24 Q1012 NOSIG


Listeners: 0 out of 911 total

Lumpur Control/Radar (North): 132.800

Lumpur Control/Radar (South) (Archives)
Sepang, Malaysia

Feed Status: UP

Click on your favorite media player to listen:
Listen with WinAmp to Lumpur Control/Radar (South)  Listen with iTunes to Lumpur Control/Radar (South)  Click here to listen if using Real Player  Click here to listen if using Windows Media Player

Or simply listen in your browser:

Listen right in your browser(in browser, requires Flash)

WMKK 200130Z VRB03KT 8000 -RA FEW010 FEW017CB SCT028 BKN140 26/24 Q1012 NOSIG


Listeners: 1 out of 911 total

Lumpur Control/Radar (South): 123.750

WMKK Lumpur Control/Radar (East) (Archives)
Sepang, Malaysia

Feed Status: UP

Click on your favorite media player to listen:
Listen with WinAmp to WMKK Lumpur Control/Radar (East)  Listen with iTunes to WMKK Lumpur Control/Radar (East)  Click here to listen if using Real Player  Click here to listen if using Windows Media Player

Or simply listen in your browser:

Listen right in your browser(in browser, requires Flash)

WMKK 200130Z VRB03KT 8000 -RA FEW010 FEW017CB SCT028 BKN140 26/24 Q1012 NOSIG


Listeners: 0 out of 911 total

Lumpur Contro/Radar (East): 134.250

WMKP Tower (Archives)
Penang, Malaysia

Feed Status: UP

Click on your favorite media player to listen:
Listen with WinAmp to WMKP Tower  Listen with iTunes to WMKP Tower  Click here to listen if using Real Player  Click here to listen if using Windows Media Player

Or simply listen in your browser:

Listen right in your browser(in browser, requires Flash)

WMKP 200130Z VRB01KT 8000 FEW020 SCT140 BKN270 29/26 Q1011 NOSIG


Listeners: 0 out of 911 total

Penang Tower: 121.100

ZBAA Tower
Beijing, China

Feed Status: DOWN
Offline since: 2017-09-19 07:19:02 UTC
ZBAA 200130Z 34003MPS 300V010 CAVOK 24/05 Q1016 NOSIG

Beijing Tower (Rwy 01/19): 118.600

ZGKL App/Control (Archives)
Guilin, China

Feed Status: UP

Click on your favorite media player to listen:
Listen with WinAmp to ZGKL App/Control  Listen with iTunes to ZGKL App/Control  Click here to listen if using Real Player  Click here to listen if using Windows Media Player

Or simply listen in your browser:

Listen right in your browser(in browser, requires Flash)

ZGKL 200100Z 18003MPS 9999 FEW033 OVC056 28/25 Q1011 NOSIG


Listeners: 1 out of 911 total

Guilin Approach: 120.850
Guilin Control: 133.600